QPF
0.00 0.00 0.02 0.02 0.03 0.06 0.04 0.00 0.00 0.00 0.00 0.00 0.00 0.00 0.00 0.00 0.00 0.00 0.00 0.00 0.00 0.00 0.00 0.00 0.00 0.00 0.00 0.00 0.00 0.00 0.00 0.00 0.00 0.00 0.00 0.00 0.00 0.00 0.00 0.00 0.00 0.00 0.00 0.00 0.00 0.00 0.00 0.00 0.00
0.00 0.01 0.03 0.04 0.03 0.04 0.02 0.00 0.00 0.00 0.00 0.00 0.00 0.00 0.00 0.00 0.00 0.00 0.00 0.00 0.00 0.00 0.00 0.00 0.00 0.00 0.00 0.00 0.00 0.00 0.00 0.00 0.00 0.00 0.00 0.00 0.00 0.00 0.00 0.00 0.00 0.00 0.00 0.00 0.00 0.00 0.00 0.00 0.00
0.01 0.01 0.03 0.03 0.06 0.09 0.03 0.01 0.00 0.00 0.00 0.00 0.00 0.00 0.00 0.00 0.00 0.00 0.00 0.00 0.00 0.00 0.00 0.00 0.00 0.00 0.00 0.00 0.00 0.00 0.00 0.00 0.00 0.00 0.00 0.00 0.00 0.00 0.00 0.00 0.00 0.00 0.00 0.00 0.00 0.00 0.00 0.00 0.00
0.01 0.01 0.02 0.03 0.04 0.06 0.04 0.02 0.01 0.00 0.00 0.00 0.00 0.00 0.00 0.00 0.00 0.00 0.00 0.00 0.00 0.00 0.00 0.00 0.00 0.00 0.00 0.00 0.00 0.00 0.00 0.00 0.00 0.00 0.00 0.00 0.00 0.00 0.00 0.00 0.00 0.00 0.00 0.00 0.00 0.00 0.00 0.00 0.00
0.00 0.00 0.01 0.02 0.04 0.04 0.03 0.02 0.02 0.01 0.00 0.00 0.00 0.00 0.00 0.00 0.00 0.00 0.00 0.00 0.00 0.00 0.00 0.00 0.00 0.00 0.00 0.00 0.00 0.00 0.00 0.00 0.00 0.00 0.00 0.00 0.00 0.00 0.00 0.00 0.00 0.00 0.00 0.00 0.00 0.00 0.00 0.00 0.00
0.00 0.00 0.00 0.01 0.03 0.03 0.04 0.03 0.02 0.01 0.01 0.01 0.00 0.00 0.00 0.00 0.00 0.00 0.00 0.00 0.00 0.00 0.00 0.00 0.00 0.00 0.00 0.00 0.00 0.00 0.00 0.00 0.00 0.00 0.00 0.00 0.00 0.00 0.00 0.00 0.00 0.00 0.00 0.00 0.00 0.00 0.00 0.00 0.00
0.00 0.00 0.00 0.00 0.01 0.03 0.04 0.03 0.03 0.02 0.01 0.00 0.01 0.00 0.00 0.00 0.00 0.00 0.00 0.00 0.00 0.00 0.00 0.00 0.00 0.00 0.00 0.00 0.00 0.00 0.00 0.00 0.00 0.00 0.00 0.00 0.00 0.00 0.00 0.00 0.00 0.00 0.00 0.00 0.00 0.00 0.00 0.00 0.00
0.00 0.00 0.00 0.00 0.01 0.02 0.03 0.04 0.03 0.02 0.01 0.00 0.01 0.01 0.00 0.00 0.00 0.00 0.00 0.00 0.00 0.00 0.00 0.00 0.00 0.00 0.00 0.00 0.00 0.00 0.00 0.00 0.00 0.00 0.00 0.00 0.00 0.00 0.00 0.00 0.00 0.00 0.01 0.01 0.01 0.00 0.00 0.00 0.00
0.00 0.00 0.00 0.00 0.00 0.01 0.01 0.02 0.03 0.04 0.02 0.01 0.01 0.01 0.00 0.00 0.00 0.00 0.00 0.00 0.00 0.00 0.00 0.00 0.00 0.00 0.00 0.00 0.00 0.00 0.00 0.00 0.00 0.00 0.00 0.00 0.00 0.00 0.00 0.00 0.02 0.03 0.04 0.03 0.03 0.03 0.01 0.01 0.01
0.00 0.00 0.00 0.00 0.00 0.00 0.01 0.02 0.02 0.03 0.02 0.01 0.01 0.00 0.00 0.00 0.00 0.00 0.00 0.00 0.00 0.00 0.00 0.00 0.00 0.00 0.00 0.00 0.00 0.00 0.00 0.00 0.00 0.00 0.00 0.00 0.00 0.00 0.00 0.01 0.04 0.09 0.11 0.11 0.11 0.11 0.07 0.05 0.03
0.00 0.00 0.00 0.00 0.00 0.00 0.00 0.01 0.01 0.02 0.01 0.01 0.01 0.01 0.00 0.00 0.00 0.00 0.00 0.00 0.00 0.01 0.00 0.01 0.01 0.01 0.00 0.01 0.01 0.01 0.01 0.01 0.01 0.01 0.01 0.01 0.01 0.01 0.02 0.05 0.07 0.12 0.14 0.09 0.14 0.16 0.11 0.09 0.08
0.00 0.00 0.00 0.00 0.00 0.00 0.00 0.00 0.00 0.00 0.00 0.00 0.01 0.01 0.01 0.00 0.00 0.00 0.00 0.00 0.03 0.03 0.01 0.01 0.01 0.01 0.01 0.00 0.01 0.01 0.01 0.02 0.01 0.02 0.02 0.02 0.03 0.05 0.06 0.08 0.10 0.10 0.09 0.10 0.11 0.13 0.15 0.16 0.16
0.00 0.00 0.00 0.00 0.00 0.00 0.00 0.00 0.00 0.00 0.00 0.00 0.01 0.01 0.01 0.01 0.01 0.00 0.00 0.01 0.07 0.10 0.07 0.05 0.02 0.01 0.01 0.02 0.02 0.02 0.02 0.03 0.02 0.03 0.03 0.05 0.08 0.09 0.09 0.08 0.09 0.09 0.11 0.13 0.14 0.13 0.16 0.18 0.18
0.00 0.00 0.00 0.00 0.00 0.00 0.00 0.00 0.00 0.00 0.00 0.00 0.01 0.01 0.01 0.01 0.02 0.02 0.02 0.04 0.10 0.07 0.05 0.04 0.03 0.03 0.04 0.03 0.02 0.03 0.03 0.03 0.03 0.04 0.06 0.08 0.12 0.14 0.12 0.10 0.09 0.09 0.09 0.10 0.12 0.11 0.12 0.15 0.15
0.00 0.00 0.00 0.00 0.00 0.00 0.00 0.00 0.00 0.00 0.00 0.00 0.01 0.01 0.04 0.06 0.04 0.04 0.05 0.09 0.13 0.10 0.06 0.06 0.06 0.06 0.05 0.03 0.03 0.04 0.04 0.05 0.05 0.06 0.07 0.09 0.15 0.17 0.17 0.12 0.07 0.07 0.08 0.09 0.09 0.10 0.11 0.12 0.12
0.00 0.00 0.00 0.00 0.00 0.00 0.00 0.00 0.00 0.00 0.00 0.00 0.01 0.02 0.05 0.08 0.09 0.10 0.13 0.15 0.17 0.18 0.15 0.15 0.14 0.11 0.06 0.04 0.04 0.06 0.07 0.08 0.08 0.07 0.07 0.07 0.10 0.11 0.18 0.14 0.07 0.07 0.09 0.08 0.08 0.09 0.08 0.08 0.08
0.00 0.00 0.00 0.00 0.00 0.00 0.00 0.00 0.00 0.00 0.00 0.01 0.04 0.04 0.05 0.07 0.12 0.20 0.22 0.21 0.25 0.36 0.41 0.45 0.31 0.17 0.12 0.10 0.11 0.11 0.11 0.10 0.08 0.07 0.08 0.07 0.08 0.08 0.08 0.07 0.05 0.06 0.05 0.06 0.06 0.06 0.06 0.04 0.04
0.00 0.00 0.00 0.00 0.00 0.00 0.00 0.00 0.00 0.01 0.00 0.01 0.01 0.02 0.05 0.11 0.20 0.28 0.33 0.36 0.42 0.53 0.62 0.60 0.39 0.29 0.27 0.21 0.19 0.17 0.14 0.10 0.08 0.09 0.11 0.09 0.08 0.09 0.09 0.05 0.03 0.02 0.03 0.03 0.04 0.04 0.03 0.03 0.03
0.00 0.00 0.00 0.00 0.00 0.00 0.00 0.00 0.00 0.00 0.00 0.01 0.01 0.03 0.10 0.19 0.27 0.32 0.46 0.56 0.69 0.73 0.69 0.66 0.61 0.48 0.37 0.31 0.24 0.17 0.12 0.07 0.05 0.05 0.07 0.09 0.11 0.11 0.07 0.02 0.01 0.01 0.01 0.01 0.01 0.01 0.02 0.02 0.02
0.00 0.00 0.00 0.00 0.00 0.00 0.00 0.00 0.00 0.00 0.00 0.02 0.04 0.10 0.18 0.24 0.29 0.36 0.45 0.60 0.70 0.73 0.67 0.57 0.46 0.33 0.26 0.23 0.18 0.13 0.09 0.09 0.11 0.11 0.12 0.13 0.10 0.06 0.03 0.01 0.00 0.00 0.00 0.00 0.00 0.01 0.00 0.00 0.01
0.00 0.00 0.00 0.00 0.00 0.00 0.00 0.00 0.00 0.01 0.01 0.03 0.10 0.15 0.15 0.28 0.42 0.38 0.35 0.38 0.44 0.51 0.54 0.41 0.27 0.18 0.16 0.15 0.12 0.09 0.09 0.08 0.09 0.16 0.18 0.14 0.09 0.06 0.02 0.01 0.01 0.01 0.01 0.00 0.00 0.00 0.00 0.00 0.00
0.00 0.00 0.00 0.00 0.00 0.00 0.00 0.00 0.01 0.02 0.03 0.06 0.13 0.14 0.22 0.39 0.41 0.36 0.30 0.26 0.26 0.28 0.26 0.25 0.18 0.14 0.12 0.11 0.10 0.09 0.08 0.09 0.08 0.09 0.11 0.10 0.07 0.05 0.03 0.02 0.02 0.02 0.01 0.01 0.00 0.00 0.00 0.00 0.00
0.00 0.00 0.00 0.00 0.00 0.00 0.00 0.01 0.02 0.04 0.05 0.08 0.13 0.18 0.23 0.26 0.25 0.24 0.20 0.15 0.16 0.17 0.15 0.16 0.15 0.14 0.14 0.12 0.10 0.08 0.09 0.08 0.06 0.06 0.08 0.10 0.08 0.05 0.04 0.05 0.05 0.03 0.03 0.03 0.02 0.01 0.00 0.00 0.00
0.00 0.00 0.00 0.00 0.01 0.01 0.02 0.02 0.04 0.10 0.16 0.17 0.15 0.16 0.16 0.17 0.19 0.16 0.12 0.10 0.11 0.16 0.16 0.16 0.17 0.17 0.15 0.13 0.11 0.10 0.08 0.07 0.06 0.06 0.05 0.06 0.06 0.06 0.06 0.07 0.07 0.06 0.04 0.04 0.03 0.03 0.01 0.01 0.00
0.00 0.00 0.00 0.01 0.02 0.03 0.03 0.04 0.11 0.22 0.27 0.23 0.18 0.18 0.22 0.20 0.15 0.12 0.10 0.09 0.09 0.15 0.15 0.12 0.13 0.14 0.15 0.14 0.13 0.12 0.10 0.10 0.09 0.07 0.06 0.06 0.06 0.06 0.07 0.08 0.09 0.11 0.09 0.08 0.07 0.04 0.02 0.01 0.01
0.00 0.00 0.00 0.00 0.01 0.02 0.04 0.08 0.16 0.23 0.24 0.22 0.19 0.21 0.27 0.21 0.13 0.09 0.08 0.07 0.07 0.10 0.10 0.08 0.08 0.10 0.12 0.12 0.11 0.09 0.07 0.06 0.06 0.06 0.07 0.07 0.07 0.07 0.07 0.10 0.11 0.11 0.08 0.07 0.06 0.05 0.04 0.02 0.01
0.01 0.01 0.01 0.00 0.00 0.01 0.06 0.11 0.13 0.16 0.19 0.19 0.17 0.19 0.20 0.14 0.09 0.07 0.05 0.04 0.04 0.04 0.04 0.04 0.04 0.05 0.06 0.06 0.07 0.06 0.05 0.04 0.03 0.04 0.04 0.04 0.04 0.04 0.06 0.08 0.10 0.09 0.07 0.05 0.05 0.06 0.05 0.03 0.01
0.02 0.02 0.01 0.01 0.02 0.03 0.04 0.12 0.16 0.18 0.19 0.18 0.22 0.23 0.18 0.11 0.05 0.03 0.01 0.01 0.01 0.01 0.01 0.01 0.01 0.02 0.02 0.03 0.02 0.02 0.02 0.01 0.01 0.01 0.01 0.02 0.02 0.02 0.03 0.04 0.05 0.05 0.06 0.05 0.04 0.03 0.03 0.02 0.01
0.02 0.03 0.02 0.02 0.02 0.03 0.05 0.12 0.15 0.17 0.17 0.21 0.24 0.22 0.14 0.06 0.02 0.01 0.01 0.00 0.00 0.00 0.01 0.00 0.00 0.01 0.01 0.01 0.01 0.01 0.00 0.00 0.00 0.00 0.00 0.00 0.01 0.01 0.02 0.02 0.03 0.04 0.06 0.07 0.05 0.03 0.03 0.02 0.02
0.03 0.03 0.03 0.02 0.03 0.03 0.06 0.11 0.13 0.15 0.15 0.15 0.13 0.07 0.03 0.02 0.01 0.01 0.00 0.00 0.00 0.00 0.00 0.00 0.00 0.00 0.00 0.00 0.00 0.00 0.00 0.00 0.00 0.00 0.00 0.00 0.00 0.00 0.01 0.01 0.02 0.03 0.04 0.06 0.06 0.05 0.04 0.03 0.02
MSLP
1010.36 1011.52 1012.68 1013.60 1014.11 1014.07 1013.47 1012.39 1011.03 1009.63 1008.44 1007.67 1007.40 1007.61 1008.20 1008.97 1009.71 1010.27 1010.54 1010.52 1010.31 1010.03 1009.83 1009.82 1010.06 1010.51 1011.10 1011.72 1012.25 1012.63 1012.82 1012.87 1012.83 1012.80 1012.84 1012.99 1013.24 1013.55 1013.87 1014.13 1014.32 1014.42 1014.46 1014.46 1014.49 1014.56 1014.69 1014.85 1015.03
1010.72 1011.97 1013.13 1013.96 1014.30 1014.05 1013.22 1011.94 1010.42 1008.91 1007.66 1006.86 1006.58 1006.78 1007.34 1008.08 1008.80 1009.34 1009.64 1009.69 1009.59 1009.45 1009.40 1009.52 1009.87 1010.39 1011.01 1011.62 1012.14 1012.51 1012.73 1012.81 1012.84 1012.88 1012.97 1013.15 1013.40 1013.67 1013.93 1014.12 1014.23 1014.28 1014.29 1014.30 1014.34 1014.45 1014.61 1014.80 1014.99
1011.08 1012.39 1013.54 1014.29 1014.51 1014.13 1013.18 1011.82 1010.25 1008.73 1007.49 1006.69 1006.38 1006.52 1006.99 1007.62 1008.23 1008.70 1008.96 1009.04 1009.02 1008.99 1009.06 1009.30 1009.72 1010.28 1010.91 1011.50 1012.00 1012.36 1012.58 1012.71 1012.80 1012.90 1013.05 1013.26 1013.50 1013.74 1013.93 1014.05 1014.09 1014.09 1014.08 1014.10 1014.18 1014.32 1014.51 1014.72 1014.92
1011.36 1012.70 1013.81 1014.51 1014.67 1014.25 1013.30 1011.97 1010.48 1009.05 1007.88 1007.12 1006.78 1006.83 1007.15 1007.60 1008.04 1008.37 1008.56 1008.62 1008.64 1008.70 1008.87 1009.20 1009.67 1010.24 1010.83 1011.38 1011.83 1012.15 1012.37 1012.53 1012.67 1012.83 1013.04 1013.27 1013.51 1013.72 1013.86 1013.92 1013.92 1013.89 1013.88 1013.91 1014.02 1014.19 1014.41 1014.64 1014.84
1011.51 1012.81 1013.87 1014.52 1014.66 1014.26 1013.41 1012.23 1010.92 1009.67 1008.64 1007.94 1007.58 1007.53 1007.67 1007.91 1008.14 1008.30 1008.38 1008.42 1008.46 1008.59 1008.84 1009.23 1009.72 1010.27 1010.80 1011.27 1011.63 1011.90 1012.09 1012.26 1012.43 1012.64 1012.90 1013.16 1013.41 1013.60 1013.71 1013.74 1013.72 1013.69 1013.68 1013.75 1013.88 1014.09 1014.33 1014.56 1014.76
1011.47 1012.67 1013.63 1014.21 1014.35 1014.03 1013.33 1012.37 1011.31 1010.29 1009.45 1008.84 1008.48 1008.32 1008.30 1008.32 1008.35 1008.35 1008.33 1008.34 1008.41 1008.61 1008.93 1009.36 1009.85 1010.36 1010.81 1011.17 1011.44 1011.62 1011.77 1011.92 1012.11 1012.36 1012.64 1012.94 1013.20 1013.39 1013.49 1013.52 1013.50 1013.48 1013.50 1013.60 1013.77 1013.99 1014.24 1014.48 1014.66
1011.26 1012.28 1013.08 1013.55 1013.67 1013.42 1012.89 1012.17 1011.37 1010.62 1009.97 1009.48 1009.13 1008.90 1008.73 1008.58 1008.44 1008.32 1008.25 1008.26 1008.39 1008.65 1009.04 1009.51 1010.01 1010.46 1010.82 1011.08 1011.24 1011.33 1011.42 1011.55 1011.74 1012.01 1012.32 1012.63 1012.91 1013.11 1013.22 1013.25 1013.25 1013.26 1013.31 1013.43 1013.63 1013.87 1014.12 1014.33 1014.50
1010.90 1011.69 1012.27 1012.60 1012.64 1012.44 1012.04 1011.52 1010.97 1010.44 1009.99 1009.61 1009.30 1009.02 1008.76 1008.50 1008.27 1008.09 1008.01 1008.06 1008.27 1008.63 1009.10 1009.61 1010.10 1010.51 1010.80 1010.96 1011.03 1011.05 1011.09 1011.19 1011.38 1011.65 1011.97 1012.30 1012.58 1012.78 1012.90 1012.95 1012.96 1013.00 1013.08 1013.22 1013.43 1013.67 1013.91 1014.11 1014.25
1010.50 1011.02 1011.35 1011.46 1011.39 1011.16 1010.82 1010.45 1010.07 1009.73 1009.43 1009.16 1008.89 1008.61 1008.31 1008.02 1007.76 1007.59 1007.55 1007.69 1008.00 1008.46 1009.00 1009.56 1010.06 1010.44 1010.67 1010.78 1010.79 1010.77 1010.78 1010.87 1011.05 1011.33 1011.65 1011.97 1012.24 1012.44 1012.55 1012.61 1012.64 1012.69 1012.78 1012.94 1013.15 1013.38 1013.59 1013.77 1013.89
1010.15 1010.39 1010.44 1010.32 1010.08 1009.76 1009.42 1009.10 1008.83 1008.60 1008.41 1008.22 1008.01 1007.76 1007.48 1007.20 1006.98 1006.87 1006.92 1007.15 1007.56 1008.11 1008.72 1009.32 1009.82 1010.19 1010.40 1010.48 1010.48 1010.45 1010.47 1010.57 1010.77 1011.05 1011.36 1011.67 1011.92 1012.09 1012.19 1012.24 1012.27 1012.33 1012.43 1012.59 1012.78 1013.00 1013.19 1013.34 1013.43
1009.94 1009.92 1009.71 1009.35 1008.91 1008.45 1008.03 1007.70 1007.45 1007.29 1007.16 1007.03 1006.87 1006.67 1006.45 1006.23 1006.09 1006.06 1006.21 1006.53 1007.02 1007.62 1008.26 1008.86 1009.37 1009.73 1009.94 1010.04 1010.07 1010.09 1010.15 1010.30 1010.52 1010.81 1011.11 1011.39 1011.61 1011.75 1011.83 1011.86 1011.89 1011.94 1012.04 1012.19 1012.37 1012.56 1012.73 1012.85 1012.92
1009.92 1009.69 1009.25 1008.66 1008.02 1007.41 1006.89 1006.49 1006.22 1006.06 1005.95 1005.87 1005.77 1005.64 1005.49 1005.36 1005.30 1005.37 1005.58 1005.96 1006.46 1007.06 1007.68 1008.25 1008.73 1009.08 1009.31 1009.45 1009.54 1009.64 1009.79 1010.00 1010.27 1010.58 1010.87 1011.13 1011.31 1011.42 1011.47 1011.48 1011.50 1011.55 1011.65 1011.79 1011.96 1012.13 1012.27 1012.37 1012.42
1010.09 1009.71 1009.08 1008.32 1007.51 1006.76 1006.13 1005.66 1005.35 1005.17 1005.08 1005.02 1004.98 1004.92 1004.86 1004.82 1004.84 1004.96 1005.20 1005.57 1006.03 1006.56 1007.09 1007.57 1007.99 1008.30 1008.54 1008.73 1008.91 1009.11 1009.36 1009.65 1009.98 1010.32 1010.62 1010.85 1011.01 1011.09 1011.12 1011.12 1011.14 1011.20 1011.30 1011.44 1011.61 1011.76 1011.88 1011.95 1011.98
1010.39 1009.90 1009.16 1008.28 1007.38 1006.54 1005.84 1005.32 1004.98 1004.79 1004.71 1004.70 1004.71 1004.72 1004.73 1004.77 1004.84 1004.99 1005.20 1005.50 1005.85 1006.23 1006.60 1006.95 1007.25 1007.51 1007.74 1007.97 1008.22 1008.53 1008.87 1009.26 1009.65 1010.01 1010.32 1010.54 1010.68 1010.75 1010.77 1010.79 1010.83 1010.91 1011.03 1011.19 1011.36 1011.50 1011.61 1011.66 1011.66
1010.73 1010.18 1009.39 1008.47 1007.54 1006.69 1005.99 1005.47 1005.14 1004.97 1004.92 1004.94 1005.00 1005.08 1005.16 1005.25 1005.35 1005.47 1005.62 1005.79 1005.98 1006.16 1006.34 1006.51 1006.66 1006.83 1007.02 1007.27 1007.58 1007.96 1008.40 1008.85 1009.29 1009.68 1009.99 1010.21 1010.35 1010.42 1010.46 1010.50 1010.58 1010.70 1010.86 1011.04 1011.23 1011.38 1011.47 1011.51 1011.48
1010.99 1010.42 1009.64 1008.77 1007.89 1007.11 1006.48 1006.03 1005.75 1005.63 1005.63 1005.70 1005.81 1005.93 1006.06 1006.17 1006.27 1006.34 1006.40 1006.43 1006.43 1006.41 1006.37 1006.34 1006.33 1006.38 1006.52 1006.76 1007.09 1007.52 1008.00 1008.49 1008.96 1009.36 1009.67 1009.88 1010.02 1010.10 1010.17 1010.26 1010.38 1010.55 1010.76 1010.99 1011.19 1011.36 1011.45 1011.48 1011.43
1011.10 1010.55 1009.85 1009.08 1008.36 1007.73 1007.24 1006.91 1006.73 1006.68 1006.72 1006.82 1006.96 1007.11 1007.25 1007.37 1007.45 1007.47 1007.43 1007.33 1007.16 1006.94 1006.71 1006.49 1006.33 1006.27 1006.33 1006.52 1006.85 1007.28 1007.76 1008.26 1008.72 1009.10 1009.40 1009.60 1009.73 1009.83 1009.93 1010.06 1010.23 1010.46 1010.71 1010.97 1011.21 1011.40 1011.50 1011.53 1011.48
1011.03 1010.54 1009.96 1009.39 1008.88 1008.47 1008.18 1008.02 1007.95 1007.97 1008.04 1008.16 1008.29 1008.42 1008.55 1008.64 1008.69 1008.66 1008.55 1008.35 1008.06 1007.70 1007.32 1006.96 1006.67 1006.51 1006.49 1006.63 1006.91 1007.31 1007.76 1008.22 1008.64 1008.98 1009.23 1009.41 1009.52 1009.62 1009.74 1009.89 1010.10 1010.37 1010.66 1010.96 1011.22 1011.43 1011.56 1011.61 1011.58
1010.78 1010.40 1010.02 1009.70 1009.46 1009.32 1009.27 1009.27 1009.32 1009.38 1009.45 1009.52 1009.59 1009.67 1009.74 1009.79 1009.80 1009.74 1009.60 1009.35 1009.00 1008.57 1008.12 1007.68 1007.31 1007.07 1006.99 1007.07 1007.29 1007.62 1008.01 1008.40 1008.75 1009.02 1009.21 1009.33 1009.42 1009.49 1009.59 1009.75 1009.98 1010.25 1010.56 1010.87 1011.16 1011.39 1011.56 1011.65 1011.66
1010.43 1010.21 1010.08 1010.06 1010.13 1010.28 1010.46 1010.63 1010.75 1010.82 1010.83 1010.79 1010.75 1010.71 1010.68 1010.66 1010.64 1010.57 1010.42 1010.19 1009.85 1009.44 1008.98 1008.53 1008.14 1007.87 1007.74 1007.77 1007.93 1008.19 1008.49 1008.80 1009.05 1009.24 1009.35 1009.40 1009.42 1009.44 1009.51 1009.64 1009.83 1010.09 1010.38 1010.69 1010.99 1011.25 1011.46 1011.61 1011.69
1010.04 1010.05 1010.22 1010.52 1010.92 1011.35 1011.74 1012.04 1012.19 1012.20 1012.08 1011.89 1011.66 1011.46 1011.30 1011.19 1011.12 1011.05 1010.95 1010.77 1010.52 1010.18 1009.79 1009.39 1009.03 1008.77 1008.63 1008.62 1008.73 1008.91 1009.13 1009.34 1009.50 1009.59 1009.61 1009.58 1009.52 1009.47 1009.47 1009.53 1009.66 1009.87 1010.12 1010.40 1010.70 1010.98 1011.23 1011.45 1011.62
1009.72 1009.99 1010.47 1011.11 1011.82 1012.50 1013.07 1013.44 1013.57 1013.46 1013.17 1012.76 1012.32 1011.91 1011.59 1011.37 1011.26 1011.20 1011.16 1011.08 1010.93 1010.71 1010.44 1010.13 1009.85 1009.63 1009.50 1009.48 1009.54 1009.66 1009.81 1009.94 1010.02 1010.02 1009.95 1009.84 1009.69 1009.56 1009.47 1009.44 1009.49 1009.61 1009.80 1010.04 1010.30 1010.59 1010.88 1011.16 1011.42
1009.53 1010.07 1010.85 1011.79 1012.77 1013.66 1014.34 1014.73 1014.80 1014.54 1014.05 1013.40 1012.73 1012.11 1011.63 1011.30 1011.14 1011.09 1011.11 1011.13 1011.11 1011.03 1010.88 1010.69 1010.49 1010.33 1010.23 1010.21 1010.25 1010.33 1010.43 1010.50 1010.51 1010.45 1010.31 1010.12 1009.90 1009.69 1009.50 1009.38 1009.33 1009.35 1009.46 1009.63 1009.86 1010.13 1010.44 1010.76 1011.09
1009.50 1010.28 1011.33 1012.51 1013.70 1014.72 1015.47 1015.84 1015.80 1015.39 1014.70 1013.84 1012.96 1012.15 1011.52 1011.10 1010.89 1010.85 1010.92 1011.02 1011.11 1011.15 1011.11 1011.03 1010.91 1010.81 1010.74 1010.73 1010.76 1010.83 1010.89 1010.93 1010.90 1010.80 1010.62 1010.38 1010.10 1009.82 1009.56 1009.34 1009.20 1009.13 1009.15 1009.24 1009.41 1009.64 1009.94 1010.28 1010.64
1009.63 1010.61 1011.84 1013.18 1014.49 1015.58 1016.34 1016.66 1016.52 1015.98 1015.12 1014.10 1013.06 1012.12 1011.38 1010.88 1010.64 1010.60 1010.70 1010.86 1011.02 1011.13 1011.18 1011.16 1011.11 1011.05 1011.01 1011.01 1011.04 1011.10 1011.15 1011.17 1011.14 1011.02 1010.83 1010.57 1010.26 1009.94 1009.62 1009.34 1009.12 1008.97 1008.89 1008.91 1009.00 1009.18 1009.42 1009.73 1010.08
1009.92 1010.99 1012.32 1013.73 1015.07 1016.16 1016.88 1017.13 1016.92 1016.28 1015.34 1014.23 1013.11 1012.11 1011.31 1010.78 1010.51 1010.46 1010.56 1010.74 1010.92 1011.06 1011.14 1011.16 1011.13 1011.09 1011.06 1011.06 1011.10 1011.15 1011.20 1011.23 1011.19 1011.09 1010.91 1010.66 1010.35 1010.02 1009.68 1009.36 1009.08 1008.87 1008.72 1008.65 1008.66 1008.75 1008.92 1009.15 1009.44
1010.32 1011.42 1012.74 1014.12 1015.41 1016.43 1017.08 1017.28 1017.02 1016.35 1015.39 1014.29 1013.17 1012.18 1011.39 1010.86 1010.57 1010.50 1010.57 1010.72 1010.88 1011.00 1011.06 1011.06 1011.03 1010.98 1010.94 1010.94 1010.96 1011.01 1011.07 1011.10 1011.08 1011.00 1010.84 1010.62 1010.34 1010.02 1009.69 1009.37 1009.07 1008.81 1008.61 1008.46 1008.38 1008.37 1008.43 1008.56 1008.75
1010.82 1011.87 1013.09 1014.37 1015.53 1016.44 1016.99 1017.14 1016.86 1016.23 1015.33 1014.31 1013.29 1012.37 1011.64 1011.13 1010.84 1010.73 1010.75 1010.83 1010.92 1010.97 1010.97 1010.93 1010.86 1010.78 1010.72 1010.69 1010.70 1010.74 1010.78 1010.81 1010.81 1010.75 1010.63 1010.45 1010.21 1009.93 1009.64 1009.33 1009.04 1008.76 1008.52 1008.31 1008.14 1008.03 1007.97 1007.97 1008.03
1011.42 1012.35 1013.42 1014.52 1015.50 1016.27 1016.72 1016.82 1016.57 1016.01 1015.24 1014.36 1013.48 1012.68 1012.03 1011.56 1011.26 1011.11 1011.04 1011.03 1011.01 1010.96 1010.88 1010.77 1010.64 1010.52 1010.42 1010.36 1010.34 1010.35 1010.38 1010.40 1010.40 1010.36 1010.26 1010.12 1009.94 1009.72 1009.47 1009.21 1008.93 1008.66 1008.39 1008.14 1007.90 1007.68 1007.51 1007.39 1007.32
1012.10 1012.89 1013.77 1014.66 1015.44 1016.04 1016.38 1016.45 1016.23 1015.77 1015.15 1014.44 1013.71 1013.05 1012.49 1012.05 1011.73 1011.51 1011.35 1011.21 1011.08 1010.93 1010.75 1010.56 1010.38 1010.21 1010.07 1009.98 1009.92 1009.90 1009.90 1009.89 1009.88 1009.84 1009.76 1009.66 1009.52 1009.36 1009.16 1008.95 1008.71 1008.46 1008.18 1007.89 1007.59 1007.30 1007.04 1006.81 1006.65
Thickness
5851 5848 5844 5832 5812 5796 5799 5827 5851 5858 5862 5871 5877 5870 5857 5848 5837 5827 5852 5858 5852 5845 5840 5836 5832 5828 5824 5820 5817 5813 5811 5808 5805 5802 5799 5796 5793 5791 5788 5786 5783 5781 5779 5776 5774 5771 5769 5767 5766
5853 5849 5837 5821 5801 5787 5805 5834 5843 5855 5865 5876 5875 5869 5857 5850 5856 5851 5852 5854 5853 5846 5841 5836 5832 5828 5824 5820 5817 5813 5810 5807 5804 5801 5798 5795 5793 5790 5787 5785 5783 5780 5778 5776 5773 5771 5769 5767 5765
5854 5849 5827 5812 5800 5794 5809 5834 5844 5858 5873 5875 5867 5866 5858 5851 5856 5853 5856 5855 5851 5845 5840 5836 5832 5828 5824 5820 5816 5813 5810 5806 5803 5800 5797 5795 5792 5789 5787 5784 5782 5780 5777 5775 5773 5771 5769 5767 5765
5851 5836 5823 5806 5800 5818 5828 5838 5848 5851 5862 5870 5864 5853 5858 5868 5865 5860 5857 5854 5848 5842 5839 5835 5831 5827 5823 5819 5816 5812 5809 5806 5802 5799 5796 5794 5791 5789 5786 5784 5781 5779 5777 5774 5772 5770 5768 5766 5764
5847 5826 5808 5798 5808 5829 5842 5849 5850 5845 5851 5858 5859 5844 5846 5866 5870 5862 5856 5852 5846 5840 5837 5834 5830 5826 5822 5818 5815 5811 5808 5805 5802 5798 5795 5792 5790 5787 5785 5782 5780 5778 5776 5774 5771 5769 5767 5766 5764
5832 5819 5798 5793 5813 5834 5844 5853 5850 5843 5846 5851 5852 5842 5843 5861 5861 5856 5855 5850 5846 5841 5836 5832 5828 5824 5820 5817 5813 5810 5807 5804 5800 5797 5794 5791 5788 5786 5783 5781 5779 5776 5774 5772 5770 5768 5767 5765 5763
5826 5813 5801 5807 5813 5826 5843 5854 5847 5841 5840 5848 5855 5837 5841 5852 5859 5858 5854 5849 5844 5839 5834 5830 5826 5822 5819 5815 5812 5808 5805 5801 5798 5795 5792 5789 5786 5783 5781 5779 5776 5774 5772 5770 5769 5767 5765 5764 5762
5841 5817 5807 5807 5812 5823 5845 5852 5853 5845 5842 5858 5858 5838 5835 5851 5860 5857 5850 5844 5840 5835 5832 5828 5825 5821 5817 5813 5810 5806 5802 5799 5796 5793 5789 5786 5783 5781 5778 5776 5774 5772 5770 5769 5767 5765 5764 5762 5760
5848 5808 5796 5807 5817 5828 5846 5846 5852 5859 5851 5852 5857 5857 5860 5862 5858 5850 5842 5836 5833 5831 5828 5826 5822 5818 5814 5810 5807 5803 5800 5796 5793 5790 5787 5784 5781 5778 5776 5773 5771 5770 5768 5767 5765 5763 5762 5760 5758
5828 5800 5811 5830 5838 5839 5845 5848 5848 5845 5839 5838 5845 5857 5864 5859 5852 5844 5838 5833 5829 5827 5825 5823 5821 5817 5812 5808 5805 5801 5797 5794 5791 5788 5785 5781 5778 5775 5772 5770 5769 5767 5766 5765 5764 5761 5760 5757 5756
5828 5817 5831 5841 5849 5849 5844 5846 5851 5840 5830 5839 5843 5849 5854 5853 5848 5843 5839 5835 5831 5828 5825 5822 5819 5816 5811 5807 5803 5798 5795 5791 5788 5785 5781 5778 5774 5771 5769 5767 5766 5765 5765 5763 5762 5760 5757 5756 5754
5825 5830 5839 5843 5850 5848 5845 5846 5843 5842 5847 5860 5862 5859 5853 5848 5845 5842 5836 5833 5829 5825 5823 5821 5818 5814 5809 5805 5802 5797 5793 5789 5786 5782 5778 5774 5770 5767 5765 5764 5763 5763 5763 5761 5759 5758 5756 5754 5753
5823 5829 5840 5845 5847 5849 5849 5843 5844 5847 5860 5860 5857 5851 5848 5846 5844 5842 5839 5834 5829 5823 5820 5819 5815 5811 5806 5802 5798 5795 5792 5788 5785 5781 5776 5773 5768 5765 5763 5760 5760 5760 5759 5758 5756 5754 5753 5751 5750
5821 5825 5831 5840 5843 5848 5841 5840 5839 5844 5857 5851 5846 5842 5841 5839 5838 5835 5831 5826 5823 5821 5818 5816 5812 5808 5804 5799 5795 5793 5789 5786 5782 5778 5775 5770 5767 5763 5760 5758 5756 5755 5755 5754 5752 5751 5749 5748 5747
5821 5812 5818 5831 5837 5840 5834 5820 5832 5846 5849 5842 5838 5835 5832 5832 5832 5830 5827 5822 5818 5815 5814 5810 5808 5804 5799 5795 5792 5788 5784 5781 5777 5774 5770 5766 5762 5759 5757 5754 5752 5751 5750 5749 5748 5746 5745 5743 5743
5804 5794 5788 5814 5827 5833 5817 5795 5828 5843 5837 5830 5828 5826 5822 5821 5822 5822 5820 5816 5813 5807 5803 5800 5801 5796 5792 5788 5784 5781 5777 5773 5769 5766 5763 5761 5758 5755 5752 5750 5748 5747 5745 5745 5743 5742 5740 5739 5738
5777 5768 5776 5797 5822 5824 5812 5797 5823 5835 5829 5819 5816 5814 5811 5809 5810 5811 5811 5806 5800 5795 5792 5787 5787 5787 5785 5780 5777 5772 5770 5765 5763 5760 5757 5753 5751 5749 5746 5743 5743 5742 5741 5739 5739 5737 5736 5734 5734
5760 5767 5775 5784 5810 5815 5803 5800 5813 5819 5818 5810 5806 5803 5800 5795 5791 5794 5797 5794 5787 5780 5777 5777 5773 5773 5771 5769 5766 5762 5760 5758 5756 5754 5751 5747 5745 5744 5741 5738 5737 5736 5735 5734 5733 5732 5732 5731 5731
5780 5775 5773 5787 5809 5803 5792 5791 5798 5804 5802 5796 5793 5790 5787 5784 5780 5782 5784 5782 5776 5770 5761 5761 5759 5759 5758 5757 5755 5751 5749 5749 5748 5748 5747 5743 5741 5738 5736 5734 5732 5732 5730 5730 5729 5728 5727 5727 5728
5782 5772 5772 5785 5803 5797 5781 5776 5781 5784 5781 5779 5776 5775 5775 5773 5772 5771 5771 5770 5766 5760 5752 5750 5750 5750 5750 5752 5751 5748 5745 5743 5742 5741 5740 5739 5736 5733 5732 5729 5727 5727 5726 5725 5725 5724 5721 5721 5723
5778 5772 5772 5774 5785 5786 5775 5757 5761 5766 5770 5768 5767 5765 5764 5764 5761 5761 5760 5758 5756 5751 5746 5743 5743 5742 5743 5744 5742 5740 5736 5733 5732 5731 5730 5732 5731 5729 5727 5725 5724 5723 5722 5721 5720 5720 5717 5715 5716
5765 5784 5782 5776 5761 5747 5756 5728 5741 5747 5750 5751 5749 5749 5748 5748 5748 5748 5748 5746 5744 5742 5740 5736 5734 5732 5731 5732 5730 5727 5723 5720 5720 5721 5722 5723 5724 5722 5721 5720 5719 5719 5718 5716 5716 5717 5715 5712 5709
5779 5788 5778 5770 5756 5741 5740 5726 5724 5734 5731 5732 5734 5734 5733 5733 5735 5735 5735 5733 5732 5732 5730 5727 5724 5721 5721 5720 5718 5716 5714 5712 5712 5713 5713 5713 5714 5714 5714 5713 5712 5712 5712 5712 5711 5711 5710 5709 5707
5790 5775 5762 5747 5733 5718 5726 5718 5710 5717 5721 5722 5722 5722 5721 5723 5724 5724 5724 5724 5722 5721 5719 5716 5713 5710 5711 5710 5708 5706 5704 5702 5701 5701 5701 5702 5702 5703 5704 5705 5705 5705 5705 5705 5705 5705 5705 5704 5703
5776 5741 5714 5709 5699 5704 5721 5711 5705 5717 5723 5720 5715 5712 5712 5712 5712 5713 5713 5712 5712 5711 5708 5706 5703 5700 5699 5698 5696 5694 5692 5690 5689 5688 5689 5689 5689 5690 5692 5695 5696 5697 5698 5699 5699 5699 5699 5699 5699
5765 5744 5710 5697 5694 5701 5710 5701 5705 5716 5718 5719 5715 5711 5708 5705 5705 5705 5705 5704 5702 5702 5699 5696 5693 5690 5688 5686 5682 5680 5679 5677 5676 5676 5676 5677 5677 5679 5681 5683 5686 5688 5689 5690 5690 5691 5692 5693 5693
5760 5747 5743 5715 5711 5698 5695 5699 5703 5709 5708 5707 5705 5702 5700 5699 5698 5697 5697 5696 5694 5691 5687 5685 5681 5678 5675 5672 5669 5668 5666 5664 5662 5662 5662 5663 5665 5668 5670 5671 5673 5676 5678 5679 5680 5682 5684 5686 5687
5765 5752 5729 5712 5696 5686 5690 5691 5689 5694 5693 5694 5692 5690 5690 5690 5689 5687 5686 5685 5683 5680 5676 5673 5669 5665 5662 5659 5656 5654 5652 5650 5650 5649 5648 5649 5651 5653 5655 5657 5659 5662 5665 5667 5669 5671 5675 5677 5679
5751 5744 5726 5708 5700 5683 5674 5677 5696 5691 5689 5686 5684 5683 5681 5679 5678 5676 5674 5673 5670 5667 5663 5659 5655 5651 5648 5644 5641 5638 5636 5635 5634 5633 5634 5634 5635 5636 5638 5641 5644 5647 5650 5654 5656 5660 5664 5667 5670
5750 5740 5725 5704 5697 5690 5673 5671 5693 5687 5684 5680 5676 5675 5673 5670 5668 5666 5663 5660 5655 5651 5647 5642 5639 5635 5631 5628 5625 5622 5620 5618 5617 5616 5617 5618 5619 5621 5623 5625 5628 5632 5636 5639 5643 5647 5652 5656 5660